Location: Catstown
(52.4386°N, 7.2633°W)
Time: 16:32:29
(UTC+00:00)

ATLAS 3B R/B - Pass Details

Date: 18 September 2020
Orbit: 1016 x 1179 km, 63.8° (Epoch: 28 October)

Event Time Altitude Azimuth Distance (km) Brightness Sun altitude
Rises 21:18:47 0° 313° (NW) 3,811 7.0 -23.8°
Reaches altitude 10° 21:21:23 10° 315° (NW) 2,874 6.0 -24.1°
Maximum altitude 21:28:12 75° 41° (NE) 1,119 2.7 -24.9°
Enters shadow 21:30:03 52° 112° (ESE) 1,338 2.8 -25.1°
